Weather in Yarkent

Kazakhstan     44°10′09″N   80°00′13″E
В апреле 2022 года жителям России запретили посещать сайт meteo.paraplan.net по решению Генеральной прокуратуры. Аудитория сайта уменьшилась в 10 раз. Владельцы сайта не видят смысла в поддержке погодного сервера в таких условиях. Сайт будет закрыт в октябре.
temp.,
°C
wind,
m/s
gust,
m/s
humid.,
%
clouds,
%
prec.,
mm/h
press.,
hPa
HPBL,
m
30 september, fri
fri3000:00+10ene2248100 0.0 101543
03:00+9ene4652100 0.0 1016169
06:00+9ene3651100 0.0 1016205
09:00+11e3344100 0.0 1017533
12:00+14sw2237100 0.0 10161245
15:00+16ssw5535100 0.0 10151609
18:00+13ssw344199 0.0 1015332
21:00+11wsw244298 0.0 1017199
1 october, sat
sat100:00+9sse1241100 0.0 1018134
03:00+8e2338100 0.0 1019209
06:00+5e233844 0.0 102281
09:00+8ese343435 0.0 1023516
12:00+12ese44235 0.0 10221171
15:00+14ese332172 0.0 10211641
18:00+11sse22244 0.0 102244
21:00+7ene22270 0.0 102518
2 october, sun
sun200:00+6ene22300 0.0 102519
03:00+5ene33310 0.0 102531
06:00+3ne11320 0.0 102610
09:00+10ne12190 0.0 1025389
12:00+14se22150 0.0 10231355
15:00+17se22120 0.0 10201543
18:00+13ese22190 0.0 102011
21:00+11n33220 0.0 102119
3 october, mon
mon300:00+10n22260 0.0 102015
03:00+8nne11240 0.0 101911
06:00+8nnw11245 0.0 101810
09:00+14sw012015 0.0 1018254
12:00+19sse2219100 0.0 1016832
15:00+21s221725 0.0 10131150
18:00+17w2223100 0.0 101311
21:00+16nnw2225100 0.0 101411
4 october, tue
tue400:00+13ese2231100 0.0 101611
03:00+12e3333100 0.0 101633
06:00+13e3433100 0.0 101874
09:00+16ne342799 0.0 1019288
12:00+20sse22306 0.0 10181950
15:00+21s32255 0.0 10162009
18:00+18ssw223142 0.0 101712
21:00+16nne2236100 0.0 102012